Terminal Aerodrome Forecast
Issued by NWS San Angelo, TX

Home | Current Version | Previous Version | Text Only | Print | Product List | Glossary On
Versions: 1 2 3 4 5 6 7 8 9 10 11 12
000
FTUS44 KSJT 010500
TAFABI
TAF
KABI 010520Z 0106/0206 17011KT P6SM SCT100
     FM011400 19014G21KT P6SM FEW120
     FM020000 17011KT P6SM SKC=

USA.gov is the U.S. government's official web portal to all federal, state and local government web resources and services.